Dati Storici

Data ora Umidita' aria (%) Temperatura aria (°C) Rad globale (W/m²) Gonioanemometro (°) Tacoanemometro (m/s) Pioggia (mm)
17-10-2018 10:30 72 % 17.992 198.276 54.033 1.548 0
17-10-2018 10:20 72.2 % 17.881 145.951 27.74 1.493 0
17-10-2018 10:10 71.5 % 17.765 115.381 18.796 1.952 0
17-10-2018 10:00 71 % 17.827 140.898 31.488 0.882 0
17-10-2018 09:50 71.5 % 17.74 146.783 11.734 1.871 0
17-10-2018 09:40 71.3 % 17.491 189.065 44.001 2.179 0
17-10-2018 09:30 73.7 % 17.583 207.96 25.529 1.842 0
17-10-2018 09:20 74.9 % 17.445 215.054 15.953 1.546 0
17-10-2018 09:10 77.3 % 17.107 231.168 13.474 1.531 0
17-10-2018 09:00 79.1 % 16.611 173.468 49.04 0.994 0
17-10-2018 08:50 81 % 16.311 143.864 17.68 1.504 0
17-10-2018 08:40 80.8 % 16.051 118.752 9.161 1.255 0
17-10-2018 08:30 80.5 % 15.978 121.815 31.992 1.316 0
17-10-2018 08:20 81.5 % 16 126.123 8.043 0.516 0
17-10-2018 08:10 81.3 % 15.994 115.559 3.532 2.086 0
17-10-2018 08:00 81.6 % 15.927 98.967 1.058 0.746 0
17-10-2018 07:50 81.3 % 15.948 73.943 345.307 1.129 0
17-10-2018 07:40 82.6 % 15.855 59.282 354.084 1.262 0
17-10-2018 07:30 84.8 % 15.629 50.214 0.339 0.012 0
17-10-2018 07:20 85.1 % 15.462 43.901 90.339 0.18 0

I dati sono presentati in modo automatico a scopo informativo. In seguito a verifica i dati possono subire modifiche o essere invalidati e non riportati negli archivi definitivi.